Reading, PA

11:18 AM EDT on March 29, 2017 (GMT -0400)
Reading Regional-Spaatz

Weather History for KRDG - September, 2013

Change the Weather History Date:

Saturday, September 14, 2013

  Actual Average Record
Temperature  
Mean Temperature 55 °F 66 °F  
Max Temperature 63 °F 77 °F 92 °F (1931)
Min Temperature 47 °F 56 °F 38 °F (1975)
Degree Days  
Heating Degree Days 10 2  
Month to date heating degree days 16 9  
Since 1 July heating degree days 16 14  
Cooling Degree Days 0 3  
Month to date cooling degree days 95 60  
Year to date cooling degree days 1079 863  
Growing Degree Days 6 (Base 50)    
Moisture  
Dew Point 46 °F    
Average Humidity 73    
Maximum Humidity 93    
Minimum Humidity 52    
Precipitation  
Precipitation 0.00 in 0.15 in 2.78 in (1966)
Month to date precipitation 0.64 1.68  
Year to date precipitation 29.78 30.64  
Sea Level Pressure  
Sea Level Pressure 30.06 in    
Wind  
Wind Speed 7 mph (NW)    
Max Wind Speed 16 mph    
Max Gust Speed 22 mph    
Visibility 10 miles    
Events      
T = Trace of Precipitation, MM = Missing Value Source: NWS Daily Summary

Daily Weather History Graph

Daily Weather History Graph

Search for Another Location

Airport or City:

Trip Planner

Search our weather history database for the weather conditions in past years. The results will help you decide how hot, cold, wet, or windy it might be!

Date:

Astronomy

Sep. 14, 2013 Rise Set
Actual Time 6:43 AM EDT 7:13 PM EDT
Civil Twilight 6:16 AM EDT 7:41 PM EDT
Nautical Twilight 5:44 AM EDT 8:13 PM EDT
Astronomical Twilight 5:11 AM EDT 8:46 PM EDT
Moon 3:54 PM EDT (9/14) 1:12 AM EDT (9/14)
Length of Visible Light 13h 24m
Length of Day
12h 30m
Waxing Gibbous, 72% of the Moon is Illuminated
Sep 14
Waxing Gibbous
Sep 19
Full
Sep 26
Last Quarter
Oct 4
New
Oct 11
First Quarter

Hourly Weather History & Observations

Time (EDT) Temp. Dew Point Humidity Pressure Visibility Wind Dir Wind Speed Gust Speed Precip Events Conditions
12:54 AM 55.9 °F 46.9 °F 72% 29.94 in 10.0 mi NW 3.5 mph - N/A   Mostly Cloudy
1:54 AM 55.0 °F 46.9 °F 74% 29.96 in 10.0 mi Calm Calm - N/A   Overcast
2:54 AM 53.1 °F 48.0 °F 83% 29.96 in 10.0 mi WNW 5.8 mph - N/A   Partly Cloudy
3:54 AM 54.0 °F 46.9 °F 77% 29.96 in 10.0 mi West 5.8 mph - N/A   Mostly Cloudy
4:54 AM 54.0 °F 46.9 °F 77% 29.96 in 10.0 mi WNW 5.8 mph - N/A   Partly Cloudy
5:54 AM 54.0 °F 46.9 °F 77% 29.98 in 10.0 mi WNW 8.1 mph - N/A   Mostly Cloudy
6:54 AM 52.0 °F 46.0 °F 80% 30.01 in 10.0 mi NW 5.8 mph - N/A   Clear
7:54 AM 54.0 °F 46.9 °F 77% 30.03 in 10.0 mi NW 6.9 mph - N/A   Scattered Clouds
8:54 AM 55.9 °F 48.0 °F 75% 30.04 in 10.0 mi NW 11.5 mph - N/A   Mostly Cloudy
9:22 AM 57.2 °F 46.4 °F 67% 30.04 in 10.0 mi NNW 11.5 mph - N/A   Mostly Cloudy
9:54 AM 59.0 °F 46.9 °F 64% 30.06 in 10.0 mi NNW 10.4 mph - N/A   Mostly Cloudy
10:52 AM 60.8 °F 44.6 °F 55% 30.05 in 10.0 mi North 9.2 mph - N/A   Overcast
10:54 AM 60.1 °F 44.1 °F 55% 30.06 in 10.0 mi North 11.5 mph - N/A   Overcast
11:54 AM 61.0 °F 45.0 °F 56% 30.08 in 10.0 mi NW 15.0 mph 20.7 mph N/A   Overcast
12:54 PM 62.1 °F 45.0 °F 53% 30.08 in 10.0 mi NNW 9.2 mph - N/A   Overcast
1:54 PM 61.0 °F 45.0 °F 56% 30.08 in 10.0 mi WNW 13.8 mph - N/A   Overcast
2:54 PM 62.1 °F 45.0 °F 53% 30.08 in 10.0 mi West 11.5 mph - N/A   Overcast
3:54 PM 61.0 °F 45.0 °F 56% 30.08 in 10.0 mi WNW 12.7 mph - N/A   Overcast
4:54 PM 61.0 °F 45.0 °F 56% 30.09 in 10.0 mi NNW 10.4 mph - N/A   Mostly Cloudy
5:54 PM 60.1 °F 45.0 °F 57% 30.12 in 10.0 mi North 9.2 mph - N/A   Mostly Cloudy
6:54 PM 57.0 °F 44.1 °F 62% 30.12 in 10.0 mi NNW 8.1 mph - N/A   Clear
7:54 PM 54.0 °F 46.0 °F 75% 30.14 in 10.0 mi Calm Calm - N/A   Clear
8:54 PM 53.1 °F 45.0 °F 74% 30.15 in 10.0 mi Calm Calm - N/A   Clear
9:54 PM 51.1 °F 45.0 °F 80% 30.16 in 10.0 mi Calm Calm - N/A   Clear
10:54 PM 50.0 °F 46.0 °F 86% 30.17 in 10.0 mi Calm Calm - N/A   Clear
11:54 PM 48.9 °F 46.0 °F 90% 30.18 in 10.0 mi Calm Calm - N/A   Clear